Simultaneous Nadir Overpasses (SNOs) Predictions

Prediction of SNOs between GOES-15 and NPP Satellite Orbit:

Table of predicted SNOs for the next 14.0 days since TLE Epoch: 5/29/2021
Index Date Time (GOES-15) GOES-15 Lat,Lon NPP Lat,Lon Distance(km) Time Diff (sec)
1 05/30/2021 10:07:36 0.06,-128.46 0.47,-130.31 210.43 80
2 05/31/2021 09:46:11 0.07,-128.47 -0.51,-125.77 306.69 80
3 06/01/2021 22:08:08 -0.07,-128.41 -0.68,-131.08 303.94 80
4 06/02/2021 21:52:05 -0.07,-128.43 0.36,-126.55 213.77 80
5 06/04/2021 10:13:54 0.07,-128.52 0.79,-131.83 377.25 80
6 06/05/2021 09:52:30 0.07,-128.52 -0.20,-127.30 139.76 80
7 06/06/2021 22:14:27 -0.07,-128.46 -0.99,-132.60 472.29 80
8 06/07/2021 21:58:23 -0.07,-128.47 -0.00,-128.07 44.93 80
9 06/10/2021 10:01:28 0.06,-128.56 0.11,-128.82 30.20 80
10 06/11/2021 09:40:04 0.06,-128.55 -0.87,-124.29 485.89 80
